sat.trackr.live / text

‹ back to catalog

EUTELSAT 117 WEST A

NORAD 39122 · 2013-012A

PAYLOAD ACTIVE UNKNOWN

§ Identity

Operator
Country
EUTE
Launch date
2013-03-26
Launch site
TYMSC
Launch vehicle
Mass (kg)
RCS (m²)
423.23

Purposes: comms

External: N2YO · Heavens-Above · Gunter

§ Orbital elements

Epoch: 2026-09-09T04:18:28.792224Z

Period
1,436.10 min
Inclination
0.0496°
Eccentricity
0.0002815
Mean motion
1.00271661 rev/d
Perigee alt
35,774.8 km
Apogee alt
35,798.5 km
Semi-major
42,164.8 km
B*
0.0000e+0
RAAN
298.5440°
Arg perigee
234.3044°
Mean anomaly
123.2045°
Rev number
4,927

§ Raw data

EUTELSAT 117 WEST A1 39122U 13012A   26252.17949991 -.00000034  00000+0  00000+0 0  99962 39122   0.0496 298.5440 0002815 234.3044 123.2045  1.00271661 49279

JSON: /api/v1/satellites/39122 · /tle

For live sub-satellite position, see the globe view (requires WebGL).

§ Visibility from observer

Set your observer location to see the next 7 days of passes ≥ 10°. The values pass through the URL so the page stays shareable.

No JS? Fill the form by hand. The geolocation button needs JavaScript.